Regional Weather Roundup
Issued by NWS

Home | Current Version | Previous Version | Text Only | Print | Product List | Glossary Off
Versions: 1 2 3 4 5 6 7 8 9 10 11 12 13 14 15 16 17 18 19 20 21 22 23 24 25 26 27 28 29 30 31 32 33 34 35 36 37 38 39 40 41 42 43 44 45 46 47 48 49 50

000
ASUS43 KBIS 011802
RWRND

NORTH DAKOTA REGIONAL WEATHER ROUNDUP
NATIONAL WEATHER SERVICE BISMARCK ND
100 PM CDT TUE SEP 01 2015

NOTE: "FAIR" INDICATES FEW OR NO CLOUDS BELOW 12,000 FEET WITH NO
SIGNIFICANT WEATHER AND/OR OBSTRUCTIONS TO VISIBILITY.


NDZ001>003-009>011-017-011900-
NORTHWEST NORTH DAKOTA

CITY           SKY/WX    TMP DP  RH WIND       PRES   REMARKS
WILLISTON      SUNNY     84  58  40 VRB6      29.79F
6HR MIN TEMP:  46; 6HR MAX TEMP:  84;

MINOT          SUNNY     83  55  38 S10G18    29.81F
$$

NDZ018>021-031>035-040>046-011900-
SOUTHWEST NORTH DAKOTA

CITY           SKY/WX    TMP DP  RH WIND       PRES   REMARKS
BISMARCK       SUNNY     82  60  47 SE10      29.84F
6HR MIN TEMP:  50; 6HR MAX TEMP:  83;

DICKINSON      SUNNY     83  57  41 S9        29.82F
GARRISON         N/A     80  58  46 S9        29.84F
6HR MIN TEMP:  53; 6HR MAX TEMP:  80;

HETTINGER ARPT SUNNY     81  59  47 SE13G18   29.85F
$$

NDZ004>008-012>016-024-026-027-054-011900-
NORTHEAST NORTH DAKOTA

CITY           SKY/WX    TMP DP  RH WIND       PRES   REMARKS
GRAND FORKS    MOSUNNY   83  55  38 SW12      29.84F
GRND FRKS AFB  SUNNY     85  57  38 W8        29.85F
DEVILS LAKE    SUNNY     81  55  41 SW8       29.85F
$$

NDZ022-023-025-028>030-036>039-047>053-011900-
SOUTHEAST NORTH DAKOTA

CITY           SKY/WX    TMP DP  RH WIND       PRES   REMARKS
FARGO          SUNNY     86  53  32 SE8       29.86F
6HR MIN TEMP:  57; 6HR MAX TEMP:  86;

JAMESTOWN      SUNNY     83  56  39 S14       29.86F
$$



USA.gov is the U.S. government's official web portal to all federal, state and local government web resources and services.